CCDAZ SCPQ-SCQP

Flight info

Callsign CCDAZ
Flight time 0h 41m
Altitude 34000
Route KEVE2L KEVET UQ809 VLD UT115 KIBEL KIBE1F
Aircraft C25C/M-SDE2E3FGHRWXY/LB1

Departure

Time 2026-05-05 19:10
Airport Mocopulli Airport (SCPQ)

Arrival

Time 2026-05-05 19:51
Airport La Araucanía International Airport (SCQP)
Time Latitude Longitude Altitude Speed Heading
2026-05-05 19:03 -42.34856 -73.72071 530 ft 0 kts 218°
2026-05-05 19:08 -42.34867 -73.72078 530 ft 7 kts 192°
2026-05-05 19:08 -42.34906 -73.72026 531 ft 8 kts 95°
2026-05-05 19:08 -42.34913 -73.71927 531 ft 15 kts 95°
2026-05-05 19:08 -42.34921 -73.71797 530 ft 13 kts 95°
2026-05-05 19:09 -42.34918 -73.71676 531 ft 12 kts 50°
2026-05-05 19:09 -42.34882 -73.71661 530 ft 0 kts
2026-05-05 19:09 -42.34584 -73.71628 524 ft 99 kts
2026-05-05 19:10 -42.33619 -73.71526 857 ft 159 kts
2026-05-05 19:10 -42.32452 -73.71390 1872 ft 175 kts 14°
2026-05-05 19:10 -42.31218 -73.70982 2861 ft 195 kts 16°
2026-05-05 19:10 -42.29768 -73.70585 3844 ft 228 kts 13°
2026-05-05 19:11 -42.28108 -73.70165 4853 ft 254 kts 12°
2026-05-05 19:11 -42.26346 -73.69724 6119 ft 260 kts 11°
2026-05-05 19:11 -42.24536 -73.69265 7491 ft 268 kts 11°
2026-05-05 19:11 -42.22699 -73.68789 8794 ft 272 kts
2026-05-05 19:12 -42.20811 -73.68313 10002 ft 278 kts
2026-05-05 19:12 -42.18908 -73.67824 11136 ft 282 kts
2026-05-05 19:12 -42.16922 -73.67320 12016 ft 300 kts
2026-05-05 19:12 -42.14762 -73.66772 12396 ft 328 kts
2026-05-05 19:13 -42.12476 -73.66187 13099 ft 338 kts
2026-05-05 19:13 -42.10177 -73.65596 14066 ft 339 kts
2026-05-05 19:13 -42.07834 -73.65000 14859 ft 344 kts
2026-05-05 19:13 -42.05490 -73.64410 15647 ft 347 kts
2026-05-05 19:14 -42.03094 -73.63797 16409 ft 351 kts
2026-05-05 19:14 -42.00696 -73.63192 17138 ft 355 kts
2026-05-05 19:14 -41.98240 -73.62567 17875 ft 360 kts
2026-05-05 19:14 -41.95747 -73.61975 18568 ft 364 kts
2026-05-05 19:15 -41.93261 -73.61381 19275 ft 367 kts
2026-05-05 19:15 -41.90751 -73.60775 20019 ft 370 kts
2026-05-05 19:15 -41.88202 -73.60154 20787 ft 373 kts
2026-05-05 19:15 -41.85652 -73.59535 21522 ft 376 kts
2026-05-05 19:16 -41.83051 -73.58913 22289 ft 377 kts
2026-05-05 19:16 -41.80486 -73.58291 23063 ft 379 kts
2026-05-05 19:16 -41.77873 -73.57665 23698 ft 382 kts
2026-05-05 19:16 -41.75242 -73.57028 24300 ft 383 kts
2026-05-05 19:17 -41.72604 -73.56395 24866 ft 384 kts
2026-05-05 19:17 -41.69985 -73.55766 25379 ft 386 kts
2026-05-05 19:17 -41.67327 -73.55127 25914 ft 386 kts
2026-05-05 19:17 -41.64701 -73.54497 26364 ft 388 kts
2026-05-05 19:18 -41.62029 -73.53859 26786 ft 389 kts
2026-05-05 19:18 -41.59346 -73.53214 27203 ft 389 kts
2026-05-05 19:18 -41.56705 -73.52583 27575 ft 390 kts
2026-05-05 19:18 -41.54013 -73.51937 27973 ft 390 kts
2026-05-05 19:19 -41.51371 -73.51306 28471 ft 387 kts
2026-05-05 19:19 -41.48719 -73.50671 29051 ft 384 kts
2026-05-05 19:19 -41.46124 -73.50052 29676 ft 380 kts
2026-05-05 19:19 -41.43510 -73.49428 30246 ft 376 kts
2026-05-05 19:20 -41.40981 -73.48825 30787 ft 370 kts
2026-05-05 19:20 -41.38452 -73.48223 31312 ft 366 kts 360°
2026-05-05 19:20 -41.35968 -73.47635 31806 ft 361 kts 359°
2026-05-05 19:20 -41.33502 -73.47047 32269 ft 357 kts 359°
2026-05-05 19:21 -41.31055 -73.46468 32699 ft 353 kts 359°
2026-05-05 19:21 -41.28669 -73.45901 33120 ft 350 kts 359°
2026-05-05 19:21 -41.26277 -73.45334 33528 ft 346 kts 359°
2026-05-05 19:21 -41.23917 -73.44779 33746 ft 348 kts 359°
2026-05-05 19:22 -41.19082 -73.43639 33792 ft 354 kts 359°
2026-05-05 19:22 -41.14224 -73.42487 33794 ft 357 kts 359°
2026-05-05 19:23 -41.09316 -73.41331 33788 ft 360 kts 359°
2026-05-05 19:23 -41.04370 -73.40165 33787 ft 362 kts 359°
2026-05-05 19:24 -40.99410 -73.39000 33790 ft 364 kts 359°
2026-05-05 19:24 -40.95230 -73.38019 33784 ft 366 kts 359°
2026-05-05 19:25 -40.89397 -73.36651 33783 ft 365 kts 359°
2026-05-05 19:25 -40.84417 -73.35488 33781 ft 364 kts 360°
2026-05-05 19:26 -40.80237 -73.34515 33786 ft 366 kts 360°
2026-05-05 19:26 -40.75231 -73.33345 33779 ft 366 kts 360°
2026-05-05 19:27 -40.70209 -73.32176 33778 ft 364 kts 360°
2026-05-05 19:27 -40.65229 -73.31023 33564 ft 369 kts
2026-05-05 19:28 -40.62662 -73.30431 33079 ft 374 kts
2026-05-05 19:28 -40.60088 -73.29829 32582 ft 374 kts
2026-05-05 19:28 -40.57550 -73.29236 32096 ft 375 kts
2026-05-05 19:28 -40.54970 -73.28641 31600 ft 377 kts
2026-05-05 19:29 -40.52372 -73.28044 31098 ft 379 kts
2026-05-05 19:29 -40.49784 -73.27445 30602 ft 382 kts
2026-05-05 19:29 -40.47136 -73.26831 30090 ft 384 kts
2026-05-05 19:29 -40.44516 -73.26226 29554 ft 387 kts
2026-05-05 19:30 -40.41856 -73.25614 29031 ft 388 kts
2026-05-05 19:30 -40.39191 -73.24996 28524 ft 389 kts
2026-05-05 19:30 -40.36503 -73.24380 28002 ft 391 kts
2026-05-05 19:30 -40.33812 -73.23759 27489 ft 392 kts
2026-05-05 19:31 -40.31152 -73.23149 26983 ft 394 kts
2026-05-05 19:31 -40.28439 -73.22526 26456 ft 397 kts
2026-05-05 19:31 -40.25705 -73.21897 25935 ft 399 kts
2026-05-05 19:31 -40.22951 -73.21268 25413 ft 402 kts
2026-05-05 19:32 -40.20188 -73.20629 24891 ft 397 kts
2026-05-05 19:32 -40.17519 -73.20013 24361 ft 388 kts
2026-05-05 19:32 -40.14876 -73.19409 23839 ft 382 kts
2026-05-05 19:32 -40.12262 -73.18816 23345 ft 378 kts
2026-05-05 19:33 -40.09707 -73.18235 22817 ft 375 kts
2026-05-05 19:33 -40.07105 -73.17643 22315 ft 377 kts
2026-05-05 19:33 -40.04505 -73.17048 21814 ft 379 kts
2026-05-05 19:33 -40.01929 -73.16458 21318 ft 378 kts
2026-05-05 19:34 -39.99338 -73.15863 20821 ft 374 kts
2026-05-05 19:34 -39.96811 -73.15289 20339 ft 368 kts
2026-05-05 19:34 -39.94292 -73.14713 19851 ft 362 kts
2026-05-05 19:35 -39.89388 -73.13605 18913 ft 357 kts
2026-05-05 19:35 -39.86901 -73.13043 18429 ft 363 kts
2026-05-05 19:35 -39.84421 -73.12476 17938 ft 366 kts
2026-05-05 19:35 -39.81904 -73.11903 17441 ft 367 kts
2026-05-05 19:36 -39.79395 -73.11333 17133 ft 362 kts
2026-05-05 19:36 -39.76908 -73.10770 16673 ft 363 kts
2026-05-05 19:36 -39.74443 -73.10214 16203 ft 363 kts
2026-05-05 19:36 -39.71937 -73.09648 15719 ft 365 kts
2026-05-05 19:37 -39.69457 -73.09084 15241 ft 357 kts
2026-05-05 19:37 -39.67040 -73.08447 14772 ft 353 kts 10°
2026-05-05 19:37 -39.64801 -73.07180 14313 ft 353 kts 18°
2026-05-05 19:37 -39.62574 -73.05902 13851 ft 348 kts 17°
2026-05-05 19:38 -39.60359 -73.04621 13376 ft 348 kts 18°
2026-05-05 19:38 -39.58148 -73.03330 12907 ft 346 kts 18°
2026-05-05 19:38 -39.55962 -73.02043 12453 ft 344 kts 18°
2026-05-05 19:38 -39.53776 -73.00775 11994 ft 341 kts 18°
2026-05-05 19:39 -39.51630 -72.99526 11551 ft 341 kts 18°
2026-05-05 19:39 -39.49468 -72.98272 11101 ft 339 kts 18°
2026-05-05 19:39 -39.47308 -72.97014 10650 ft 338 kts 18°
2026-05-05 19:39 -39.45192 -72.95785 10218 ft 336 kts 18°
2026-05-05 19:40 -39.43054 -72.94545 9767 ft 335 kts 18°
2026-05-05 19:40 -39.40926 -72.93313 9289 ft 333 kts 18°
2026-05-05 19:40 -39.38885 -72.92115 8872 ft 306 kts 18°
2026-05-05 19:40 -39.37036 -72.91041 8483 ft 284 kts 17°
2026-05-05 19:41 -39.35280 -72.90028 8119 ft 271 kts 17°
2026-05-05 19:41 -39.33578 -72.89054 7750 ft 265 kts 17°
2026-05-05 19:41 -39.31911 -72.88091 7404 ft 259 kts 17°
2026-05-05 19:41 -39.30269 -72.87138 7055 ft 254 kts 17°
2026-05-05 19:42 -39.28711 -72.86154 6736 ft 252 kts 25°
2026-05-05 19:42 -39.27243 -72.84834 6387 ft 258 kts 27°
2026-05-05 19:42 -39.25755 -72.83567 6055 ft 256 kts 28°
2026-05-05 19:42 -39.24309 -72.82321 5720 ft 244 kts 27°
2026-05-05 19:43 -39.22929 -72.81125 5387 ft 232 kts 26°
2026-05-05 19:43 -39.21628 -72.80003 5100 ft 218 kts 26°
2026-05-05 19:43 -39.20404 -72.78947 4811 ft 209 kts 26°
2026-05-05 19:43 -39.19209 -72.77918 4538 ft 202 kts 26°
2026-05-05 19:44 -39.18072 -72.76940 4281 ft 195 kts 26°
2026-05-05 19:44 -39.16956 -72.75977 4032 ft 190 kts 26°
2026-05-05 19:44 -39.15855 -72.75034 3777 ft 189 kts 25°
2026-05-05 19:44 -39.14758 -72.74095 3552 ft 187 kts 24°
2026-05-05 19:45 -39.13632 -72.73537 3514 ft 169 kts
2026-05-05 19:45 -39.12491 -72.73074 3492 ft 175 kts 11°
2026-05-05 19:45 -39.11318 -72.72607 3498 ft 177 kts 11°
2026-05-05 19:45 -39.10129 -72.72126 3497 ft 180 kts 11°
2026-05-05 19:46 -39.08908 -72.71641 3443 ft 187 kts 11°
2026-05-05 19:46 -39.07653 -72.71146 3218 ft 190 kts 12°
2026-05-05 19:46 -39.06429 -72.70653 2976 ft 180 kts 12°
2026-05-05 19:46 -39.05250 -72.70185 2739 ft 171 kts 13°
2026-05-05 19:47 -39.04207 -72.69774 2519 ft 147 kts 12°
2026-05-05 19:47 -39.03257 -72.69393 2324 ft 138 kts 13°
2026-05-05 19:47 -39.02375 -72.69043 2155 ft 125 kts 14°
2026-05-05 19:47 -39.01588 -72.68732 1995 ft 115 kts 14°
2026-05-05 19:48 -39.00853 -72.68442 1844 ft 105 kts 14°
2026-05-05 19:48 -39.00204 -72.68183 1713 ft 87 kts 15°
2026-05-05 19:48 -38.99654 -72.67965 1598 ft 82 kts 14°
2026-05-05 19:48 -38.99113 -72.67745 1482 ft 83 kts 16°
2026-05-05 19:49 -38.98553 -72.67533 1379 ft 87 kts 12°
2026-05-05 19:49 -38.98158 -72.67374 1296 ft 92 kts 12°
2026-05-05 19:49 -38.97297 -72.67031 1125 ft 100 kts 14°
2026-05-05 19:49 -38.96633 -72.66771 994 ft 99 kts 15°
2026-05-05 19:50 -38.96003 -72.66519 848 ft 93 kts 14°
2026-05-05 19:50 -38.95398 -72.66276 724 ft 88 kts 16°
2026-05-05 19:50 -38.94812 -72.66049 619 ft 89 kts 16°
2026-05-05 19:50 -38.94203 -72.65797 494 ft 93 kts 15°
2026-05-05 19:51 -38.93586 -72.65562 367 ft 91 kts 16°
2026-05-05 19:51 -38.93037 -72.65344 321 ft 71 kts 16°
2026-05-05 19:51 -38.92682 -72.65202 317 ft 42 kts 17°
2026-05-05 19:51 -38.92432 -72.65106 317 ft 33 kts 17°
2026-05-05 19:52 -38.92370 -72.64985 316 ft 15 kts 103°
2026-05-05 19:52 -38.92396 -72.64874 316 ft 12 kts 108°
2026-05-05 19:52 -38.92440 -72.64794 316 ft 14 kts 170°
2026-05-05 19:52 -38.92558 -72.64835 317 ft 16 kts 198°
2026-05-05 19:53 -38.92616 -72.64773 317 ft 12 kts 97°
2026-05-05 19:53 -38.92616 -72.64717 317 ft 1 kts 164°
2026-05-05 19:53 -38.92618 -72.64718 317 ft 0 kts 198°